Regional Weather Roundup
Issued by NWS

Home | Current Version | Previous Version | Text Only | Print | Product List | Glossary Off
Versions: 1 2 3 4 5 6 7 8 9 10 11 12 13 14 15 16 17 18 19 20 21 22 23 24 25 26 27 28 29 30 31 32 33 34 35 36 37 38 39 40 41 42 43 44 45 46 47 48 49

000
ASUS43 KDMX 281307
RWRIA

WEATHER ROUNDUP FOR IOWA
NATIONAL WEATHER SERVICE DES MOINES IA
800 AM CDT THU MAY 28 2015

NOTE: "FAIR" INDICATES FEW OR NO CLOUDS BELOW 12,000 FEET WITH NO
SIGNIFICANT WEATHER AND/OR OBSTRUCTIONS TO VISIBILITY.

* - THESE STATIONS ARE NOT NWS STATIONS...THUS NOT UNDER NWS
QUALITY CONTROL.  THEY ALSO DO NOT REPORT WEATHER SUCH
AS PRECIPITATION OR FOG.

IAZ001>003-012>014-020>022-031>034-043>046-281400-
   NORTHWEST IOWA

CITY           SKY/WX    TMP DP  RH WIND       PRES   REMARKS
CARROLL *      SUNNY     61  59  94 SE5       30.10F
CHEROKEE *     PTSUNNY   63  57  82 S6        30.08S
DENISON *      SUNNY     64  57  77 S12       30.07F
LE MARS *      MOSUNNY   64  55  72 VRB6      30.06F
ORANGE CITY *  SUNNY     64  52  63 S8        30.06F
SHELDON *      SUNNY     64  54  68 S10       30.06S
SIOUX CITY     PTSUNNY   64  55  72 SE8       30.06S
SPENCER        PTSUNNY   64  57  78 S9        30.09S
STORM LAKE *   SUNNY     64  55  72 S13       30.10F
$$

IAZ055>058-069>071-079>083-090>094-281400-
   SOUTHWEST IOWA

CITY           SKY/WX    TMP DP  RH WIND       PRES   REMARKS
ATLANTIC *     SUNNY     66  57  72 S8        30.11R
AUDUBON *      SUNNY     61  55  82 S3        30.12S
CLARINDA *     MOSUNNY   64  57  77 S6        30.11S
COUNCIL BLFS * MOSUNNY   64  59  82 S10G18    30.10R
CRESTON *      SUNNY     64  59  82 S10       30.12F
HARLAN  *      SUNNY     63  63 100 S5        30.13S
LAMONI         CLOUDY    67  57  70 SE7       30.12F
RED OAK *      SUNNY     64  57  77 S9        30.10S
SHENANDOAH *   CLOUDY    66  57  72 SW7G15    30.12R
$$

IAZ047>049-059>061-072>074-084-281400-
   CENTRAL IOWA

CITY           SKY/WX    TMP DP  RH WIND       PRES   REMARKS
AMES           CLOUDY    64  60  87 SE7       30.13R
ANKENY *       SUNNY     64  61  88 S5        30.13S
CHARITON *     SUNNY     64  59  82 SE9       30.14S
DES MOINES     CLOUDY    66  57  72 S8        30.13S
GRINNELL*      PTSUNNY   66  57  72 S8        30.17R
KNOXVILLE *    SUNNY     66  57  72 S9        30.14S
MARSHALLTOWN   PTSUNNY   65  58  78 S6        30.15R
PELLA *        PTSUNNY   66  61  82 SE3       30.16S
PERRY *          N/A     64  59  82 S7        30.12F
$$

IAZ004>006-015-016-023>025-035-036-281400-
   NORTH CENTRAL IOWA

CITY           SKY/WX    TMP DP  RH WIND       PRES   REMARKS
ALGONA *       SUNNY     64  57  77 S14       30.12R
CLARION *      SUNNY     66 N/A N/A S13       30.13S
ESTHERVILLE    MOSUNNY   61  56  83 S13       30.09S
FORT DODGE *   CLOUDY    64  55  72 S8        30.13S
MASON CITY     MOSUNNY   66  60  81 S8        30.14R
FOREST CITY *  SUNNY     64  59  82 S5        30.13R
IOWA FALLS *     N/A     64  59  82 SE8       30.15S
$$

IAZ007>011-017>019-026>030-037>042-050>054-066-281400-
   NORTHEAST IOWA

CITY           SKY/WX    TMP DP  RH WIND       PRES   REMARKS
CEDAR RAPIDS   MOSUNNY   66  60  81 S5        30.16R
CHARLES CITY * SUNNY     66  63  88 S8        30.15R
CLINTON *      SUNNY     66  57  72 S6        30.21R
DECORAH *      SUNNY     68  59  73 SW6       30.15R
DUBUQUE        SUNNY     67  58  72 S6        30.18R
MONTICELLO *   SUNNY     66  61  82 CALM      30.18R
OELWEIN *      SUNNY     66  59  77 S9        30.17R
WATERLOO       MOSUNNY   67  58  72 S5        30.15R
$$

IAZ064-065-067-068-078-281400-
   EAST CENTRAL IOWA

CITY           SKY/WX    TMP DP  RH WIND       PRES   REMARKS
DAVENPORT      SUNNY     68  58  70 SE5       30.18R
IOWA CITY      MOSUNNY   65  60  84 CALM      30.18R
MT. PLEASANT * MOSUNNY   68  59  73 SE6       30.18R
MUSCATINE *    SUNNY     66  61  82 S3        30.18R
QUAD CITIES    SUNNY     66  58  75 CALM      30.18R
$$

IAZ062-063-075>077-085>089-095>099-281400-
   SOUTHEAST IOWA

CITY           SKY/WX    TMP DP  RH WIND       PRES   REMARKS
BURLINGTON     SUNNY     68  59  73 S8        30.17R
FAIRFIELD *    SUNNY     68  57  68 S7        30.17R
FORT MADISON *   N/A     68  61  77 SE9       30.18R
KEOKUK *       SUNNY     68  59  73 SE8       30.16S
OSKALOOSA *      N/A     66  59  77 S9        30.17R
CENTERVILLE *  SUNNY     64  64 100 SE9       30.16F
OTTUMWA        PTSUNNY   67  59  75 S12       30.14S
WASHINGTON *   SUNNY     66  61  82 S7        30.19R
$$

ABBREVIATIONS USED IN REMARKS
   TC - TEMPERATURES IN CELSIUS
  WCI - WIND CHILL INDEX
   HX - HEAT INDEX
  VSB - VISIBILITY
$$



USA.gov is the U.S. government's official web portal to all federal, state and local government web resources and services.